Tracking 19720 objects as of 26-Jun-2019
HD Live streaming from Space Station
objects crossing your sky now

MICROSAT-R DEB

Track MICROSAT-R DEB now!
10-day predictions


NORAD ID: 44178
Int'l Code: 2019-006BR
Perigee: 249.1 km
Apogee: 380.1 km
Inclination: 96.2 °
Period: 90.7 minutes
Semi major axis: 6685 km
RCS: Unknown
Launch date: January 24, 2019
Source: India (IND)
Launch site: SRIHARIKOTA (SRI)

Note: This is SATELLITE DEBRIS
aabbcc
Your satellite tracking list
Your tracking list is empty




NASA's NSSDC Master Catalog

Two Line Element Set (TLE):
1 44178U 19006BR  19176.92571841  .01291324  73566-3  31781-2 0  9995
2 44178  96.1588  76.4344 0097959  55.1648 305.8792 15.88143791 13217
Source of the keplerian elements: AFSPC